Home   Weather   Haifa   Past weeks

Flag for Israel Past Weather in Haifa, Israel — Yesterday and Last 2 Weeks

Now
57 °F

Clear.


Feels Like: 56 °F
Forecast: 63 / 67 °F
Wind: 6 mph from East

Location: Dov Airport

Current Time: Dec 4, 2016 at 2:03:23 am

Latest Report: Dec 3, 2016 at 10:50 pm


Visibility: 10 mi

Pressure: 30.24 "Hg

Humidity: 82%

Dew Point: 52 °F

Location of HaifaLocation

Past Weather in Haifa — Graph

°F

Haifa Temperature Yesterday

Maximum temperature yesterday: 68 °F (at 2:50 pm)
Minimum temperature yesterday: 55 °F (at 6:00 am)
Average temperature yesterday: 60 °F

High & Low Weather Summary for the Past Weeks

 TemperatureHumidityPressure
High86 °F (Nov 20, 12:50 pm)94% (Dec 1, 3:02 pm)30.30 "Hg (Dec 1, 3:02 pm)
Low52 °F (Nov 26, 6:50 am)5% (Nov 24, 1:50 pm)29.74 "Hg (Dec 1, 1:50 pm)
Average68 °F34%30.01 "Hg
* Reported Nov 19 5:00 am — Dec 3 10:50 pm, Haifa, Weather by CustomWeather, © 2016

Note: Actual official high and low records may vary slightly from our data, if they occured in-between our weather recording intervals... More about our weather records

Advertising

Haifa Weather History for the Previous 24 Hours

Scroll right to see more
 ConditionsComfort  
Time TempWeatherWind HumidityBarometerVisibility
10:50 pm
Sat, Dec 3
57 °FClear.6 mph82%30.24 "Hg10 mi
9:50 pm59 °FClear.6 mph77%30.24 "Hg10 mi
8:50 pm61 °FPassing clouds.6 mph72%30.24 "HgN/A
7:50 pm61 °FPassing clouds.6 mph72%30.27 "HgN/A
6:50 pm63 °FPassing clouds.6 mph68%30.27 "HgN/A
5:50 pm63 °FPassing clouds.5 mph73%30.27 "HgN/A
4:50 pm64 °FPassing clouds.3 mph64%30.24 "HgN/A
3:50 pm66 °FPassing clouds.3 mph60%30.24 "HgN/A
2:50 pm68 °FPassing clouds.7 mph60%30.24 "HgN/A
1:50 pm66 °FScattered clouds.5 mph68%30.24 "HgN/A
12:50 pm61 °FPartly sunny.6 mph77%30.24 "HgN/A
11:50 am57 °FBroken clouds.7 mph88%30.27 "HgN/A
10:50 am57 °FBroken clouds.6 mph88%30.30 "HgN/A
9:50 am55 °FPartly sunny.8 mph94%30.30 "Hg5 mi
8:50 am55 °FLight rain. Partly sunny.7 mph88%30.27 "Hg4 mi
7:50 am57 °FLight rain. Partly sunny.6 mph77%30.24 "HgN/A
6:50 am57 °FScattered clouds.10 mph77%30.24 "HgN/A
6:00 am55 °FPassing clouds.6 mph88%30.21 "HgN/A
Weather by CustomWeather, © 2016

See weather overviewHow to use our weather pages